Regional Weather Roundup
Issued by NWS Glasgow, MT

Home | Current Version | Previous Version | Text Only | Print | Product List | Glossary On
Versions: 1 2 3 4 5 6 7 8 9 10 11 12 13 14 15 16 17 18 19 20 21 22 23 24 25 26 27 28 29 30 31 32 33 34 35 36 37 38 39 40 41 42 43 44 45 46 47 48 49 50
000
ASUS45 KGGW 031615
RWRGGW
HOURLY WEATHER ROUNDUP FOR NORTHEAST MONTANA
NATIONAL WEATHER SERVICE GLASGOW MONTANA
900 AM MST TUE MAR 03 2015

NOTE: "FAIR" INDICATES FEW OR NO CLOUDS BELOW 12,000 FEET WITH NO
SIGNIFICANT WEATHER AND/OR OBSTRUCTIONS TO VISISBILITY.

NORTHEAST MONTANA


CITY           SKY/WX    TMP DP  RH WIND       PRES   REMARKS
GLASGOW        MOSUNNY    7  -6  55 NW22G31   30.15F WCI -14
PLENTYWOOD       N/A      2  -6  69 NW18        N/A  WCI -19
WOLF POINT     MOSUNNY   10  -4  53 NW23G30   30.18S WCI -10
JORDAN           N/A      8  -2  63 NW21G28   30.16S WCI -12
WINNETT          N/A     10   1  67 W13G28      N/A  WCI  -5
SIDNEY         MOSUNNY    9  -4  56 W23G29    30.15S WCI -12
GLENDIVE       PTSUNNY    9  -2  61 NW20G28   30.12R WCI -11
MALTA            N/A      9  -2  61 W12G25      N/A  WCI  -6
SCOBEY           N/A      3 -11  52 NW21G31   30.07R WCI -18

FORT PECK REPORTS


CITY           SKY/WX    TMP DP  RH WIND       PRES   REMARKS
FORT PECK        N/A      8  -3  61 W21G30      N/A  WCI -12
THE PINES        N/A     10  -4  53 NW10        N/A  WCI  -4

SOUTHEAST MONTANA


CITY           SKY/WX    TMP DP  RH WIND       PRES   REMARKS
BILLINGS       PTSUNNY    9  -3  58 NE3       30.13S
MILES CITY     CLOUDY    10   1  67 NW17      30.16S WCI  -8
BAKER          MOSUNNY    8  -5  55 NW23G35   30.07R WCI -13
LIVINGSTON     CLOUDY     7  -2  66 W13       30.06R WCI  -9

CENTRAL MONTANA


CITY           SKY/WX    TMP DP  RH WIND       PRES   REMARKS
HAVRE          MOSUNNY    8  -3  61 W15       30.24S WCI  -9
LEWISTOWN      SUNNY      1  -7  68 W9        30.11F
GREAT FALLS    MOSUNNY    4   1  88 SW6       30.17F
CUT BANK       SUNNY      4  -3  73 NW7       30.14F
HELENA         MOSUNNY   11  -1  58 W6        30.16F
BUTTE          MOSUNNY    4  -4  69 CALM      30.01R
BOZEMAN        CLOUDY     8  -2  63 S12       30.08R WCI  -7

WESTERN MONTANA


CITY           SKY/WX    TMP DP  RH WIND       PRES   REMARKS
MISSOULA       SUNNY     16  -1  47 E16       30.17S
KALISPELL      NOT AVBL

NORTH DAKOTA


CITY           SKY/WX    TMP DP  RH WIND       PRES   REMARKS
WILLISTON      PTSUNNY    4  -6  63 NW23G30   30.12R WCI -18
DICKINSON      PTSUNNY    8  -3  61 NW25G38   29.98S WCI -13
MINOT          LGT SNOW   2  -6  69 W25G32    30.01S WCI -22
BISMARCK       SUNNY      9  -5  53 NW23G36   30.04R WCI -11

SOUTHERN SASKATCHEWAN


CITY           SKY/WX    TMP DP  RH WIND       PRES   REMARKS
REGINA         FLURRIES  -4 -11  71 NW24      30.05S WCI -29
MOOSE JAW      MOSUNNY   -4 -13  65 W18       30.11S WCI -26
ESTEVAN        SUNNY     -2 -11  65 W24G31    30.04  WCI -27
SWIFT CURRENT  SUNNY     -2  -8  78 NW23      30.07F WCI -26



USA.gov is the U.S. government's official web portal to all federal, state and local government web resources and services.